Location: Eaton Estates
(41.3089°N, 82.0057°W)
Time: 13:08:08
(UTC+00:00)

Cosmos 2315 Rocket - Pass Details

Date: 17 June 2021
Orbit: 966 x 1002 km, 82.9° (Epoch: 26 July)

Event Time Altitude Azimuth Distance (km) Brightness Sun altitude
Rises 09:16:55 0° 351° (N) 3,668 7.5 -6.5°
Reaches altitude 10° 09:19:26 10° 350° (N) 2,715 6.8 -6.2°
Maximum altitude 09:25:38 79° 265° (W) 987 4.0 -5.2°
Drops below altitude 10° 09:31:48 10° 180° (S) 2,699 6.0 -4.3°
Sets 09:34:18 0° 179° (S) 3,644 6.7 -3.9°
